星链-1677 (STARLINK-1677 )

导读 | 星芒AI

STARLINK-1677 是 SpaceX Starlink 项目中的一颗低轨通信卫星,属于第 21 批组网发射的星链卫星之一。该卫星于 2023 年 9 月 28 日由猎鹰 9 号火箭送入近地轨道,旨在为全球用户提供高速互联网服务。它运行在约 550 公里的高度,采用先进通信技术,支持宽带接入和低延迟数据传输。STARLINK-1677 的部署有助于扩展 Starlink 网络覆盖范围,特别是在偏远和网络基础设施薄弱的地区。

基本信息
目录编号:
46576
目录名称:
STARLINK-1677
国际标识:
2020-070AW
轨道中心:
EARTH
卫星名称:
星链-1677
卫星全名:
星链-1677 (STARLINK-1677 )
卫星状态:
在轨 (已飞行1897 天)
发射日期:
2020-10-06 UTC
国别 :
美国 (US)
星等 :
--
轨道信息
数据来源 国际轨道数据
星历时间: 2025-12-16T01:44:56+0800
14小时前
查看轨道信息
半长轴: 6825.973km
偏心率: 0.000954
轨道倾角: 53.048°
近地点辐角 151.771°
升交点赤经 167.304°
平近点角 208.381°
近地点: 441.326km
远地点: 454.35km
周期: 93.542分钟
每日圈数: 15.39416
详细信息
固有亮度:
5
最大亮度:
2.5
卫星平台:
Starlink V1.0
覆盖范围:
全球
运营商:
太空探索技术公司
运营商所在国:
美国
制造商(研发单位):
太空探索技术公司
制造商所在国:
美国
使用方式:
暂无
卫星简介
星链(Starlink)计划是由太空探索技术公司(SpaceX)提出的一个巨型低轨卫星互联网星座项目,计划在2019年至2024年间在太空搭建由约1.2万颗卫星组成的“星链”网络,其中1584颗将部署在地球上空550千米处的近地轨道,并从2020年开始工作。该卫星仍在工作。
2D轨道图
3D轨道图
轨道高度分析图
轨道倾角分析图
轨道综合分析图
查看轨道综合分析图